Tracking 29892 objects as of 21-Nov-2024
HD Live streaming from Space Station
objects crossing your sky now

SL-16 DEB

Track SL-16 DEB now!
10-day predictions


NORAD ID: 22551
Int'l Code: 1992-093HM
Perigee: 844.7 km
Apogee: 979.2 km
Inclination: 70.9 °
Period: 103.1 minutes
Semi major axis: 7282 km
RCS: 0.0042 m2 (small)
Launch date: December 25, 1992
Source: Commonwealth of Independent States (former USSR) (CIS)
Launch site: TYURATAM MISSILE AND SPACE COMPLEX (TTMTR)

Note: This is SATELLITE DEBRIS
Your satellite tracking list
Your tracking list is empty




NASA's NSSDC Master Catalog

Two Line Element Set (TLE):
1 22551U 92093HM  24325.50466747  .00000283  00000-0  22844-3 0  9999
2 22551  70.8620 142.7860 0092331 112.2874 248.8060 13.96831857623382
Source of the keplerian elements: AFSPC